Aérodrome :
LOGIN :

S'inscrire | Disclaimer

   EN    FR    IT 

 










Légende :    VFR   VFR Marginal   IFR   IFR Intensif   IFR Très Intensif
Visi : 
Plafond : 
>= 8 km
>= 3000ft
5 à 8 km
1000 à 3000 ft
1500m à 5 km
500 à 1000 ft
800 à 1500m
200 à 500 ft
< 800m
< 200 ft
Symboles :   Orages  Brouillard  Fortes neiges  Fortes précipitations  Vent > 20 kt
SIGMETs :   Divers  Orages  Givrage  Turbulence  Onde Orograph.  Cendres Volcan.






- Altitude de l'aérodrome : 289 ft
- Code IATA : ZAD


LDZD - Zadar

DERNIER METAR :
  • 262300Z VRB02KT CAVOK M02/M06 Q1016

METARs EXPIRÉS :
  • 262230Z 13003KT CAVOK M02/M05 Q1016
  • 262200Z VRB01KT CAVOK M02/M05 Q1016
  • 262130Z 00000KT CAVOK M02/M05 Q1016
  • 262100Z 35002KT CAVOK M03/M05 Q1016
  • 262030Z VRB01KT CAVOK M03/M05 Q1016

TAF TAF LDZD
Valide du 26 à 18h jusqu'au 27 à 18h UTC


261725Z 2618/2718 06006KT CAVOK TX09/2712Z TNM04/2705Z
TEMPO 2618/2706 32008KT



MET'MAP, la Météo Aéronautique d'un coup d'oeil ! - Copyright ORBIFLY Décembre 2007 - Disclaimer

ORBIFLY MET'MAP TEAM :

Programmation & Développement : Alexandra Zaïnal
Sur une idée originale de : Baudouin d'Aumeries
Assistance à la programmation : Marc-Olivier Méhu
Soutien technique & logistique : Manuel Goepfert

Contact : metmap@orbifly.com




SOURCES & CREDITS :

   NOAA